User: anonymous   Login
Location: Unspecified
(0.0000°N, 0.0000°E)
Time: 05:48:28
(UTC+00:00)
Language:

TIANWANG 1C (TW-1C) - Orbit

View from above orbital plane
View from above orbital plane
View from above satellite
View from above satellite

Ground track
Ground track

The orbit data is extracted from the following two-line orbital elements,

1 40926U 15051B   19083.79484200  .00008890  00000-0  13985-3 0  9992
2 40926  97.1479 130.1376 0007397 343.6216 106.9848 15.53806854196818
Epoch (UTC): 24 March 2019 19:04:34
Eccentricity: 0.0007397
inclination: 97.1479°
perigee height: 400 km
apogee height: 410 km
right ascension of ascending node: 130.1376°
argument of perigee: 343.6216°
revolutions per day: 15.53806854
mean anomaly at epoch: 106.9848°
orbit number at epoch: 19681

The dashed part of the orbit path shows where the satellite is in the earth's shadow,  

DLR